Flag for Norway Weather past 2 weeks in Jørpeland, Norway

Now
61 °F

Fog.


Feels Like: 61 °F
Forecast: 57 / 65 °F
Wind: 8 mph from Southwest

Location: Stavanger / Sola

Current Time: Jul 4, 2015 at 5:58:32 PM

Latest Report: Jul 4, 2015 at 5:20 PM


Visibility: N/A

Pressure: 30.12 "Hg

Humidity: 88%

Dew point: 57 °F

Location of JørpelandLocation

Historic Weather in Jørpeland — Graph

°F

Jørpeland temperature yesterday

Maximum temperature yesterday: 73 °F (at 12:20 AM)
Minimum temperature yesterday: 57 °F (at 7:50 PM)
Average temperature yesterday: 65 °F

Past Weeks' High & Low Weather Summary

 TemperatureHumidityPressure
High84 °F (Jul 2, 3:20 PM)100% (Jun 27, 5:20 PM)30.30 "Hg (Jun 27, 5:20 PM)
Low45 °F (Jun 26, 3:50 AM)37% (Jul 2, 2:20 PM)29.68 "Hg (Jun 22, 3:50 PM)
Average58 °F77%30.00 "Hg
* Reported Jun 19 4:20 PM — Jul 4 4:50 PM, Jørpeland, Weather by CustomWeather, © 2015

Note: Actual official high and low records may vary slightly from our data, if they occured in-between our weather recording intervals... More about our weather records

Advertising

Jørpeland weather history for previous 24 hours

 ConditionsComfort  
Time TempWeatherWind HumidityBarometerVisibility
4:50 PM
Sat, Jul 4
61 °FFog.9 mph94%30.12 "Hg2 mi
4:20 PM61 °FFog.10 mph94%30.12 "Hg1 mi
3:50 PM63 °FFog.2 mph88%30.12 "HgN/A
3:20 PM63 °FPartly sunny.6 mph88%30.12 "Hg4 mi
2:50 PM61 °FPartly sunny.7 mph94%30.12 "Hg5 mi
2:20 PM61 °FLow clouds.10 mph88%30.15 "Hg4 mi
1:50 PM61 °FMostly cloudy.9 mph88%30.15 "Hg4 mi
1:20 PM61 °FMostly cloudy.8 mph94%30.15 "Hg4 mi
12:50 PM63 °FLow clouds.7 mph88%30.15 "Hg4 mi
12:20 PM63 °FLow clouds.5 mph88%30.15 "Hg4 mi
11:50 AM63 °FLow clouds.7 mph88%30.15 "Hg4 mi
11:20 AM63 °FLow clouds.5 mph88%30.15 "Hg4 mi
10:50 AM63 °FLow clouds.2 mph88%30.15 "Hg5 mi
10:20 AM61 °FLow clouds.3 mph94%30.15 "Hg5 mi
9:50 AM61 °FLow clouds.2 mph94%30.18 "Hg5 mi
9:20 AM61 °FLow clouds.2 mph94%30.18 "Hg5 mi
8:50 AM59 °FLow clouds.5 mph100%30.15 "Hg4 mi
8:20 AM59 °FFog.6 mph100%30.15 "Hg3 mi
7:50 AM59 °FFog.7 mph100%30.15 "Hg3 mi
7:20 AM59 °FDrizzle. Fog.7 mph94%30.15 "Hg2 mi
6:50 AM59 °FFog.6 mph100%30.18 "Hg3 mi
6:20 AM59 °FFog.5 mph94%30.18 "Hg2 mi
5:50 AM57 °FFog.3 mph100%30.18 "Hg1 mi
4:50 AM57 °FDrizzle. Fog.3 mph100%30.21 "Hg1 mi
3:50 AM57 °FDrizzle. Fog.5 mph100%30.24 "Hg1 mi
2:50 AM57 °FDrizzle. Fog.2 mph100%30.24 "Hg1 mi
1:50 AM57 °FDrizzle. Fog.5 mph100%30.24 "Hg1 mi
1:20 AM57 °FFog.5 mph100%30.24 "Hg1 mi
12:50 AM57 °FFog.5 mph100%30.24 "Hg1 mi
12:20 AM57 °FFog.7 mph94%30.27 "Hg1 mi
11:50 PM
Fri, Jul 3
57 °FFog.8 mph94%30.27 "Hg1 mi
11:20 PM57 °FFog.8 mph100%30.27 "Hg1 mi
10:50 PM57 °FFog.8 mph100%30.27 "Hg1 mi
10:20 PM59 °FFog.8 mph94%30.27 "Hg3 mi
9:50 PM59 °FLow clouds.9 mph94%30.27 "Hg5 mi
9:20 PM57 °FLow clouds.9 mph100%30.27 "Hg5 mi
8:50 PM57 °FFog.8 mph94%30.27 "Hg2 mi
8:20 PM57 °FFog.8 mph94%30.27 "Hg2 mi
7:50 PM57 °FFog.8 mph94%30.27 "Hg1 mi
7:20 PM59 °FFog.7 mph94%30.27 "Hg1 mi
6:50 PM59 °FFog.6 mph94%30.27 "Hg1 mi
6:20 PM61 °FFog.7 mph88%30.27 "Hg1 mi
5:50 PM59 °FFog.8 mph94%30.27 "Hg2 mi
5:20 PM63 °FFog.8 mph83%30.27 "Hg5 mi
Weather by CustomWeather, © 2015

See weather overviewHow to use our weather pages